我用 App 记录自己跑步 2 年了,下面列表展示的是 2022 的数据


2022 Journey
94 Runs
425.5 KM
7:01 Avg Pace
8 day Streak
145 Avg Heart Rate

2021 Journey
10 Runs
48.5 KM
7:29 Avg Pace
4 day Streak
155 Avg Heart Rate

Total Journey
104 Runs
474.1 KM
7:03 Avg Pace
8 day Streak
146 Avg Heart Rate

KMPaceBPMTimeDate
傍晚跑步2.66:4113517min2022-11-20 21:13:31
傍晚跑步0.97:161336min2022-11-19 21:30:40
傍晚跑步3.87:0713327min2022-11-18 21:44:40
傍晚跑步4.06:4314426min2022-11-17 21:16:57
傍晚跑步3.07:1214521min2022-11-16 21:31:59
傍晚跑步4.16:4814927min2022-11-15 20:19:35
傍晚跑步3.77:2914627min2022-11-14 20:52:48
傍晚跑步3.17:0414321min2022-11-13 20:50:02
傍晚跑步2.17:0013314min2022-11-10 20:49:50
傍晚跑步2.17:0114214min2022-10-16 20:18:50
傍晚跑步2.37:0513916min2022-10-15 21:12:56
傍晚跑步4.66:4715731min2022-09-30 20:54:51
傍晚跑步4.06:3115826min2022-09-25 21:12:04
傍晚跑步5.76:5715339min2022-09-24 20:38:57
傍晚跑步3.17:0513622min2022-09-18 20:26:03
傍晚跑步4.17:1314729min2022-09-12 20:44:50
傍晚跑步3.16:4214220min2022-09-11 21:38:35
傍晚跑步5.06:5214534min2022-09-10 20:44:14
傍晚跑步5.26:5015235min2022-09-09 21:28:22
傍晚跑步4.98:0214139min2022-09-04 20:20:33
傍晚跑步4.38:1014035min2022-09-03 21:09:09
傍晚跑步4.48:0013135min2022-09-02 20:26:43
傍晚跑步0.77:054min2022-08-30 21:42:44
傍晚跑步5.16:5813635min2022-08-28 19:42:22
傍晚跑步4.97:3613737min2022-08-27 20:15:15
傍晚跑步4.27:3113731min2022-08-21 20:01:47
傍晚跑步4.57:3014033min2022-08-20 20:38:14
傍晚跑步4.36:2414227min2022-08-19 21:42:02
傍晚跑步3.27:3214324min2022-08-14 20:03:36
傍晚跑步3.89:0013734min2022-08-13 20:48:11
傍晚跑步3.26:3513321min2022-08-08 21:41:03
傍晚跑步6.07:4914446min2022-08-07 20:57:15
傍晚跑步5.26:4914735min2022-08-06 21:24:24
傍晚跑步3.76:4414124min2022-08-01 21:04:43
傍晚跑步4.06:4514027min2022-07-31 20:18:42
傍晚跑步5.26:3914234min2022-07-30 21:17:54
傍晚跑步1.18:061338min2022-07-24 20:51:03
夜晚跑步2.26:3214114min2022-07-23 22:27:33
傍晚跑步4.17:1014429min2022-07-17 19:34:32
清晨跑步4.06:2214825min2022-07-17 08:41:04
傍晚跑步4.17:0814129min2022-07-16 21:16:05
清晨跑步4.36:3914528min2022-07-16 08:44:55
傍晚跑步2.56:4611116min2022-07-14 20:18:43
傍晚跑步2.16:5714min2022-07-10 21:36:48
傍晚跑步2.37:0013216min2022-07-10 21:00:03
傍晚跑步6.17:1714044min2022-07-09 20:50:28
傍晚跑步4.46:1927min2022-06-30 21:16:04
傍晚跑步5.46:3535min2022-06-27 20:18:10
傍晚跑步2.35:5113min2022-06-23 21:39:11
傍晚跑步3.56:1822min2022-06-23 21:16:07
傍晚跑步3.46:0520min2022-06-20 20:47:12
午后跑步10.36:2065min2022-06-19 18:16:09
清晨跑步2.16:4514min2022-06-19 09:07:57
傍晚跑步3.86:0222min2022-06-18 20:24:08
傍晚跑步4.86:2831min2022-06-16 20:08:54
傍晚跑步4.47:4515334min2022-06-13 21:11:58
傍晚跑步12.47:0713388min2022-06-11 20:55:37
傍晚跑步5.16:3813633min2022-06-07 20:16:04
傍晚跑步6.27:1013844min2022-06-06 20:48:53
夜晚跑步1.711:4713820min2022-06-04 22:13:18
傍晚跑步5.17:1913837min2022-05-18 19:52:37
傍晚跑步5.16:3315133min2022-05-10 20:19:46
傍晚跑步6.77:2514449min2022-05-08 20:12:58
傍晚跑步4.47:1712932min2022-05-05 20:31:17
傍晚跑步3.06:5114520min2022-05-04 21:16:54
傍晚跑步5.17:0714036min2022-05-03 21:29:14
傍晚跑步5.06:5115034min2022-05-02 21:30:43
傍晚跑步4.16:2515326min2022-04-30 20:57:15
午后跑步3.06:3215419min2022-04-25 18:30:26
傍晚跑步3.56:1716422min2022-04-24 21:02:45
傍晚跑步4.06:2914725min2022-04-17 20:36:29
傍晚跑步2.07:4912415min2022-04-11 20:24:54
傍晚跑步4.16:3315726min2022-04-08 21:00:03
傍晚跑步2.77:1719min2022-04-06 20:53:32
傍晚跑步5.37:1115038min2022-03-19 19:42:13
傍晚跑步5.28:1542min2022-03-18 20:49:04
傍晚跑步5.07:0314735min2022-03-14 21:30:15
傍晚跑步6.07:1414743min2022-03-13 20:38:10
傍晚跑步5.16:5714635min2022-03-12 19:44:51
傍晚跑步13.47:34144101min2022-03-11 20:44:01
傍晚跑步5.16:5115534min2022-03-06 19:20:46
傍晚跑步10.97:3216482min2022-03-05 20:13:35
傍晚跑步10.07:0316070min2022-02-26 21:03:42
傍晚跑步5.27:1214637min2022-02-14 20:50:10
傍晚跑步5.97:1914943min2022-02-11 20:30:29
傍晚跑步6.46:5615144min2022-01-18 21:12:37
傍晚跑步3.06:2516019min2022-01-16 21:53:33
傍晚跑步5.16:4015734min2022-01-15 20:10:08
傍晚跑步10.07:4715577min2022-01-14 20:33:42
傍晚跑步5.17:1416636min2022-01-09 21:00:43
傍晚跑步5.56:4416537min2022-01-08 20:09:37
傍晚跑步7.26:5316049min2022-01-07 20:34:00
傍晚跑步1.67:0113511min2022-01-02 21:54:58
傍晚跑步6.17:2216244min2022-01-01 21:20:35